Location: Champaign/Urbana Astronomical Society Observatory
(40.0333°N, 88.2833°W)
Time: 15:40:54
(UTC-05:00)

AIST 2D - Pass Details

Date: 21 May 2019
Orbit: 455 x 473 km, 97.2° (Epoch: 24 June)

Event Time Altitude Azimuth Distance (km) Brightness Sun altitude
Rises 23:25:43 0° 18° (NNE) 2,509 ? -26.5°
Reaches altitude 10° 23:27:51 10° 25° (NNE) 1,625 ? -26.7°
Enters shadow 23:28:56 18° 33° (NNE) 1,197 ? -26.8°
